CLUSTER II-FM8 (TANGO)

Last updated on Mon Nov 03 2025 00:03:51 GMT+0000 (Coordinated Universal Time)

1 26464U 00045B 25308.25483089 .00001213 00000+0 00000+0 0 9993 2 26464 147.1944 21.9789 8691613 237.4001 0.8253 0.44421872 19304
UTC large
Height (km)
Speed (km/s)
/
Latitude / Longitude
Inclination (degrees)
Orbital Period (minutes)
Azimuth
Elevation
Range (km)
Doppler Factor

Next 0 passes for location: London (51.5072 / 0.1276)

Sorry there are no passes over London.